Find Starlink 3136

NORAD ID: 49443 Int'l Des: 2021-104 Owner: SPXS Country: US Constellation: starlink operational
LEOCIRCULAR

Live-Position

3D-Globus wird geladen...

Über Starlink 3136

Beschreibung wird geladen...

Nächste Überflüge

Passes for default location (London). Set your location on the main map for personalized predictions.

Höhenverlauf

Loading altitude history...

Zweizeiliger Elementsatz

1 49443U 21104AM 26106.22378423 .00001730 00000-0 12638-3 0 9992
2 49443 53.2177 40.6191 0001121 84.1618 275.9502 15.08944354244581
Epoch: 16. Apr. 2026 • Age: 30 hours

Aktueller Status

Höhe 551.3 km
Geschwindigkeit 7.59 km/s
Subsatellitenpunkt -35.41°S, 123.33°W
Startdatum 13. Nov. 2021
Alter 4.4 years
Typ internet

Technische Details

Klassifizierung Payload
Masse 290.00 kg
Trockenmasse 270.00 kg
Gesamtmasse 290.00 kg
Länge 0.20 m
Durchmesser 2.80 m
Spannweite 9.00 m
Form Box + pan
Hersteller SPXS
Bus-Typ Starlink
Phasenstatus In Orbit
Besitzer/Staat SPXS/US

Most Searched